Location: Pittsburgh
(40.4410°N, 79.9960°W)
Time: 05:28:37
(UTC-04:00)

ARIANE 6 FM1 Upper Stage - Pass Details

Date: 14 March 2026
Orbit: 525 x 604 km, 62.0° (Epoch: 20 April)

Event Time Altitude Azimuth Distance (km) Brightness Sun altitude
Exits shadow 06:46:47 - 297° (WNW) 1,883 4.8 -9.6°
Reaches altitude 10° 06:47:16 10° 303° (WNW) 1,803 4.8 -9.5°
Maximum altitude 06:48:47 12° 325° (NW) 1,687 4.8 -9.3°
Drops below altitude 10° 06:50:16 10° 347° (NNW) 1,792 5.2 -9.0°
Sets 06:53:51 0° 21° (NNE) 2,674 6.5 -8.3°
